Time,TemperatureF,DewpointF,PressureIn,WindDirection,WindDirectionDegrees,WindSpeedMPH,WindSpeedGustMPH,Humidity,HourlyPrecipIn,Conditions,Clouds,dailyrainin,SoftwareType,DateUTC
2014-07-28 13:14:00,90.5,55.0,30.15,NNE,23,1.3,1.3,30,0.00,,,0.00,WUHU216HW,2014-07-28 19:14:00,
2014-07-28 13:15:00,90.5,55.0,30.15,NNE,23,1.3,1.3,30,0.00,,,0.00,WUHU216HW,2014-07-28 19:15:00,
2014-07-28 13:20:00,90.9,55.4,30.15,ENE,68,1.3,3.6,30,0.00,,,0.00,WUHU216HW,2014-07-28 19:20:00,
2014-07-28 13:25:00,91.3,54.5,30.15,NNE,23,2.0,3.6,29,0.00,,,0.00,WUHU216HW,2014-07-28 19:25:00,
2014-07-28 13:30:00,91.8,55.0,30.14,NNE,23,1.6,2.7,29,0.00,,,0.00,WUHU216HW,2014-07-28 19:30:00,
2014-07-28 13:35:00,91.8,53.9,30.14,NE,45,2.2,4.0,28,0.00,,,0.00,WUHU216HW,2014-07-28 19:35:00,
2014-07-28 13:40:00,91.8,53.9,30.14,North,0,3.1,4.0,28,0.00,,,0.00,WUHU216HW,2014-07-28 19:40:00,
2014-07-28 13:45:00,92.9,54.7,30.14,ESE,113,1.1,3.1,28,0.00,,,0.00,WUHU216HW,2014-07-28 19:45:00,
2014-07-28 13:50:00,93.8,53.3,30.14,SE,135,1.6,2.5,26,0.00,,,0.00,WUHU216HW,2014-07-28 19:50:00,
2014-07-28 13:55:00,94.0,52.4,30.14,SE,135,2.2,2.5,25,0.00,,,0.00,WUHU216HW,2014-07-28 19:55:00,
2014-07-28 14:00:00,94.7,53.0,30.14,ESE,113,1.1,2.5,25,0.00,,,0.00,WUHU216HW,2014-07-28 20:00:00,
2014-07-28 14:05:00,95.0,52.2,30.14,NE,45,0.7,2.2,24,0.00,,,0.00,WUHU216HW,2014-07-28 20:05:00,
2014-07-28 14:10:00,95.8,51.7,30.13,NNE,23,1.1,2.5,23,0.00,,,0.00,WUHU216HW,2014-07-28 20:10:00,
2014-07-28 14:15:00,95.6,51.5,30.13,NE,45,0.4,3.4,23,0.00,,,0.00,WUHU216HW,2014-07-28 20:15:00,
2014-07-28 14:20:00,95.6,50.4,30.13,ESE,113,1.1,3.4,22,0.00,,,0.00,WUHU216HW,2014-07-28 20:20:00,
2014-07-28 14:25:00,95.8,51.7,30.13,East,90,0.9,3.1,23,0.00,,,0.00,WUHU216HW,2014-07-28 20:25:00,
2014-07-28 14:30:00,95.8,50.6,30.13,NNE,23,1.3,3.1,22,0.00,,,0.00,WUHU216HW,2014-07-28 20:30:00,
2014-07-28 14:35:00,95.4,50.2,30.13,NNE,23,1.8,4.5,22,0.00,,,0.00,WUHU216HW,2014-07-28 20:35:00,
2014-07-28 14:40:00,95.8,50.6,30.13,SE,135,1.8,4.5,22,0.00,,,0.00,WUHU216HW,2014-07-28 20:40:00,
2014-07-28 14:45:00,96.1,50.9,30.13,North,0,1.6,3.1,22,0.00,,,0.00,WUHU216HW,2014-07-28 20:45:00,
2014-07-28 14:50:00,96.3,51.0,30.13,NE,45,1.1,3.1,22,0.00,,,0.00,WUHU216HW,2014-07-28 20:50:00,
2014-07-28 14:55:00,96.7,51.4,30.12,East,90,1.8,1.8,22,0.00,,,0.00,WUHU216HW,2014-07-28 20:55:00,
2014-07-28 15:00:00,97.0,50.6,30.12,NE,45,6.3,6.3,21,0.00,,,0.00,WUHU216HW,2014-07-28 21:00:00,
2014-07-28 15:05:00,96.8,49.3,30.12,ENE,68,2.2,6.9,20,0.00,,,0.00,WUHU216HW,2014-07-28 21:05:00,
2014-07-28 15:10:00,96.8,49.3,30.12,South,180,1.1,6.9,20,0.00,,,0.00,WUHU216HW,2014-07-28 21:10:00,
2014-07-28 15:15:00,97.0,49.5,30.12,NE,45,1.8,6.3,20,0.00,,,0.00,WUHU216HW,2014-07-28 21:15:00,
2014-07-28 15:20:00,96.8,49.3,30.11,ESE,113,2.5,6.3,20,0.00,,,0.00,WUHU216HW,2014-07-28 21:20:00,
2014-07-28 15:25:00,96.3,48.9,30.11,NE,45,0.7,4.3,20,0.00,,,0.00,WUHU216HW,2014-07-28 21:25:00,
2014-07-28 15:30:00,95.9,49.6,30.11,NE,45,2.0,4.5,21,0.00,,,0.00,WUHU216HW,2014-07-28 21:30:00,
2014-07-28 15:35:00,95.9,48.5,30.11,NE,45,2.9,4.9,20,0.00,,,0.00,WUHU216HW,2014-07-28 21:35:00,
2014-07-28 15:40:00,96.1,50.9,30.11,NE,45,3.4,4.9,22,0.00,,,0.00,WUHU216HW,2014-07-28 21:40:00,
2014-07-28 15:45:00,96.7,50.2,30.11,ENE,68,0.9,3.4,21,0.00,,,0.00,WUHU216HW,2014-07-28 21:45:00,
2014-07-28 15:50:00,97.2,49.6,30.11,SE,135,1.1,3.4,20,0.00,,,0.00,WUHU216HW,2014-07-28 21:50:00,
2014-07-28 15:55:00,97.6,49.9,30.11,NNE,23,1.1,3.4,20,0.00,,,0.00,WUHU216HW,2014-07-28 21:55:00,
2014-07-28 16:00:00,97.9,50.2,30.11,ESE,113,1.6,3.1,20,0.00,,,0.00,WUHU216HW,2014-07-28 22:00:00,
2014-07-28 16:05:00,98.1,48.5,30.11,NE,45,1.1,4.0,19,0.00,,,0.00,WUHU216HW,2014-07-28 22:05:00,
2014-07-28 16:10:00,97.6,48.1,30.10,ENE,68,1.8,4.0,19,0.00,,,0.00,WUHU216HW,2014-07-28 22:10:00,
2014-07-28 16:15:00,97.2,49.6,30.10,NE,45,3.4,3.4,20,0.00,,,0.00,WUHU216HW,2014-07-28 22:15:00,
2014-07-28 16:20:00,96.8,49.3,30.10,NE,45,2.2,3.4,20,0.00,,,0.00,WUHU216HW,2014-07-28 22:20:00,
2014-07-28 16:25:00,96.8,49.3,30.10,NE,45,3.6,3.6,20,0.00,,,0.00,WUHU216HW,2014-07-28 22:25:00,
2014-07-28 16:30:00,96.8,50.4,30.10,NE,45,1.8,4.0,21,0.00,,,0.00,WUHU216HW,2014-07-28 22:30:00,
2014-07-28 16:35:00,96.3,50.0,30.10,NE,45,3.4,5.1,21,0.00,,,0.00,WUHU216HW,2014-07-28 22:35:00,
2014-07-28 16:40:00,95.4,50.2,30.10,North,0,2.5,5.1,22,0.00,,,0.00,WUHU216HW,2014-07-28 22:40:00,
2014-07-28 16:45:00,95.4,51.4,30.10,NNW,338,2.9,5.1,23,0.00,,,0.00,WUHU216HW,2014-07-28 22:45:00,
2014-07-28 16:50:00,96.1,52.0,30.10,NW,315,2.2,5.1,23,0.00,,,0.00,WUHU216HW,2014-07-28 22:50:00,